Regional Weather Roundup
Issued by NWS

Home | Current Version | Previous Version | Text Only | Print | Product List | Glossary On
Versions: 1 2 3 4 5 6 7 8 9 10 11 12 13 14 15 16 17 18 19 20 21 22 23 24 25 26 27 28 29 30 31 32 33 34 35 36 37 38 39 40 41 42 43 44 45 46 47 48 49 50
000
ASUS45 KPSR 280410
RWRAZ

ARIZONA REGIONAL HOURLY WEATHER ROUNDUP
NATIONAL WEATHER SERVICE PHOENIX AZ
900 PM MST FRI MAR 27 2015

NOTE: FAIR INDICATES FEW OR NO CLOUDS BELOW 12,000 FEET WITH NO
SIGNIFICANT WEATHER AND/OR OBSTRUCTIONS TO VISIBILITY.

AZZ001>003-036-280500-
NORTHWEST ARIZONA

CITY           SKY/WX    TMP DP  RH WIND       PRES   REMARKS
BULLHEAD CITY  CLEAR     79  23  12 E6        29.99R
KINGMAN        CLEAR     57  24  28 CALM      30.14R
$$

AZZ004>008-015-016-018-280500-
NORTH CENTRAL ARIZONA

CITY           SKY/WX    TMP DP  RH WIND       PRES   REMARKS
GRAND CANYON   CLEAR     37  21  52 CALM      30.31R
WILLIAMS       CLEAR     55  19  24 SW6       30.39R
PRESCOTT       CLEAR     57  22  25 S7        30.24R
FLAGSTAFF      CLEAR     45  20  36 CALM      30.34R
PAYSON         CLEAR     61  21  21 CALM      30.25R
PAGE           CLEAR     63  25  23 W3        30.14R
$$

AZZ009>014-017-280500-
NORTHEAST ARIZONA

CITY           SKY/WX    TMP DP  RH WIND       PRES   REMARKS
WINSLOW        CLEAR     52  16  24 SW7       30.21R
SAINT JOHNS    CLEAR     55  11  17 S6        30.23R
WINDOW ROCK    CLEAR     47  15  27 NE3       30.29R
SHOW LOW       CLEAR     54  14  20 S6        30.31S
$$

AZZ023-280500-
GREATER PHOENIX AREA

CITY           SKY/WX    TMP DP  RH WIND       PRES   REMARKS
PHOENIX        CLEAR     82  24  12 CALM      29.99R
LUKE AFB       CLEAR     71  41  33 NW3       29.98R
DEER VALLEY    CLEAR     69  34  27 CALM      30.01R
SCOTTSDALE     CLEAR     78  29  16 NE3       30.03R
MESA-GATEWAY   CLEAR     75  25  15 CALM      30.03R
CHANDLER       CLEAR     77  27  15 W7        30.00S
$$

AZZ027-028-280500-
SOUTHWEST MARICOPA COUNTY AND PINAL COUNTY

CITY           SKY/WX    TMP DP  RH WIND       PRES   REMARKS
CASA GRANDE    CLEAR     73  21  14 CALM      30.01R
GILA BEND      FAIR      82  22  10 SW2       29.98R
$$

AZZ503-504-507>509-280500-
SOUTHEAST ARIZONA

CITY           SKY/WX    TMP DP  RH WIND       PRES   REMARKS
TUCSON         CLEAR     77  21  12 NW7       30.09R
DAVIS-MONTHAN  CLEAR     73  23  15 NW9       30.07R
NOGALES        CLEAR     61  18  18 CALM      30.15R
SIERRA VISTA   CLEAR     66  11  11 W9        30.20R
DOUGLAS        CLEAR     62  18  18 S3        30.17R
SAFFORD        CLEAR     72  14  11 W5        30.07R
$$

AZZ020-021-025-026-031-280500-
SOUTHWEST ARIZONA

CITY           SKY/WX    TMP DP  RH WIND       PRES   REMARKS
YUMA           CLEAR     83  35  18 CALM      29.95R
$$

CAZ031-033-041-043-047-048-061-280500-
SOUTHERN CALIFORNIA

CITY           SKY/WX    TMP DP  RH WIND       PRES   REMARKS
DOWNTOWN L.A.  CLEAR     69  53  56 CALM      30.01R
L.A. AIRPORT   CLEAR     65  56  72 S6        30.03R
SAN DIEGO      PTCLDY    67  59  75 CALM      30.07R
BURBANK        CLEAR     79  31  17 NW3       30.03R
ONTARIO        CLEAR     76  38  25 CALM      30.03R
RIVERSIDE      CLEAR     77  39  25 CALM      30.04R
PALM SPRINGS   CLEAR     85  32  15 S5        29.98R
EL CENTRO NAS  CLEAR     80  30  16 S6        29.94R
IMPERIAL       CLEAR     80  36  20 SW6       29.93R
BLYTHE         CLEAR     75  39  27 NE6       29.96R
NEEDLES        CLEAR     79  22  12 W7        29.98R
$$

NVZ020-UTZ003-280500-
SOUTHERN NEVADA-UTAH

CITY           SKY/WX    TMP DP  RH WIND       PRES   REMARKS
LAS VEGAS      CLEAR     78  22  12 VRB3      30.01R
SALT LAKE CITY CLEAR     59  33  37 SE9       30.14S
$$

NMZ009-TXZ055-280500-
NEW MEXICO-WEST TEXAS

CITY           SKY/WX    TMP DP  RH WIND       PRES   REMARKS
ALBUQUERQUE    CLEAR     64  15  15 N8        30.18R
EL PASO        CLEAR     68  17  14 S8        30.14R
$$


........................KEY........................
SKY/WX - SKY CONDITION/WEATHER
TMP    - TEMPERATURE IN FAHRENHEIT
DP     - DEW POINT IN FAHRENHEIT
RH     - RELATIVE HUMIDITY IN PERCENT
WIND   - DIRECTION AND SPEED IN MILES PER HOUR (MPH)
VRB    - VARIABLE WIND DIRECTION
PRES   - MEAN SEA LEVEL PRESSURE IN INCHES OF MERCURY
         F - FALLING PRESSURE   R - RISING PRESSURE
         S - STEADY PRESSURE
VSB    - VISIBILITY IN MILES
HX     - HEAT INDEX IN FAHRENHEIT
WCI    - WIND CHILL INDEX IN FAHRENHEIT
TC     - TEMPERATURE IN CELSIUS WHICH IS ALSO KNOWN AS
         TEMPERATURE IN CENTIGRADE
AFB    - AIR FORCE BASE
         LUKE AFB IS LUKE AIR FORCE BASE
         DAVIS-MONTHAN IS DAVIS-MONTHAN AIR FORCE BASE
NAS    - NAVAL AIR STATION
         EL CENTRO NAS IS EL CENTRO NAVAL AIR STATION
N/A    - NOT AVAILABLE




USA.gov is the U.S. government's official web portal to all federal, state and local government web resources and services.